Location: *
(45.9500°N, 9.0833°E)
Time: 14:45:04
(UTC+00:00)

Meteor 1-11 Rocket - Pass Details

Date: 03 March 2021
Orbit: 831 x 916 km, 81.2° (Epoch: 14 April)

Event Time Altitude Azimuth Distance (km) Brightness Sun altitude
Rises 19:23:22 0° 189° (S) 3,467 6.8 -23.3°
Reaches altitude 10° 19:25:49 10° 189° (S) 2,520 6.1 -23.7°
Maximum altitude 19:31:34 89° 280° (W) 868 3.6 -24.6°
Drops below altitude 10° 19:37:12 10° 11° (N) 2,482 6.2 -25.5°
Sets 19:39:37 0° 11° (NNE) 3,412 6.9 -25.9°
